#timestamp,LO_Frequency,Hit,StdDev 
1506200415.2,286047003.1,N
1506200435.9,286047001.4,N
1506200455.7,286047000.5,N
1506200475.5,286046997.8,N
1506200495.4,286046993.6,N
1506200515.2,286046994.2,N
1506200535.0,286046990.3,N
1506200535.9,286046990.3,N
1506200555.8,286046987.2,N
1506200575.6,286046991.1,N
1506200595.4,286046990.7,N
1506200615.3,286046991.0,N
1506200635.1,286046990.8,N
1506200636.0,286046990.8,N
1506200655.8,286046991.6,N
1506200675.7,286046988.5,N
1506200695.5,286046993.4,N
1506200715.3,286046994.9,N
1506200735.2,286046997.9,N
1506200755.9,286046993.8,N
1506200775.7,286046990.5,N
1506200795.5,286046987.7,N
1506200815.4,286046987.9,N
1506200835.2,286046991.1,N
1506200855.0,286046992.6,N
1506200855.9,286046992.6,N
1506200875.8,286046991.1,N
1506200895.6,286046990.6,N
1506200915.4,286046988.0,N
1506200935.3,286046977.9,Y
1506200955.1,286046988.0,P
1506200975.8,286046992.0,P
1506200995.7,286046995.6,N
1506201015.5,286047000.2,N
1506201035.3,286047009.1,N
1506201055.2,286047010.6,N
1506201075.9,286047009.7,N
1506201095.7,286047012.8,N
1506201115.6,286047016.8,N
1506201135.4,286047017.0,N
1506201155.2,286047015.6,N
1506201175.0,286047015.0,N
1506201176.0,286047015.0,N
1506201195.8,286047016.1,N
1506201215.6,286047017.4,N
1506201235.4,286047018.2,N
1506201255.3,286047017.4,N
1506201275.1,286047020.0,N
1506201295.8,286047020.3,N
1506201315.7,286047021.9,N
1506201335.5,286047025.2,N
1506201355.3,286047021.5,N
1506201375.2,286047023.0,N
1506201395.9,286047022.5,N
1506201415.7,286047025.8,N
1506201435.6,286047025.0,N
1506201455.4,286047022.5,N
1506201475.2,286047024.5,N
1506201495.0,286047024.9,N
1506201495.9,286047024.9,N
1506201515.8,286047024.6,N
1506201535.6,286047028.0,Y
1506201555.5,286047009.8,P
1506201575.3,286047007.9,N
1506201595.1,286047010.2,N
1506201615.8,286047009.8,N
1506201635.7,286047008.3,N
1506201655.5,286047008.3,N
1506201675.3,286047010.1,Y
1506201695.2,286047003.1,P
1506201715.0,286047004.1,N
1506201715.9,286047004.1,N
1506201735.7,286047002.7,N
1506201755.6,286047000.8,N
1506201775.4,286046997.9,N
1506201795.2,286046993.6,N
1506201815.1,286046991.1,N
1506201816.0,286046991.1,N
1506201835.8,286046986.6,N
1506201855.6,286046984.1,N
1506201875.5,286046985.1,N
1506201895.3,286046980.5,N
1506201915.1,286046979.1,N
1506201935.9,286046980.2,N
1506201955.7,286046982.0,N
1506201975.5,286046978.3,N
1506201995.3,286046976.3,N
1506202015.2,286046972.5,N
1506202035.0,286046971.5,N
1506202035.9,286046971.5,N
1506202055.7,286046971.4,N
1506202075.6,286046969.8,N
1506202095.4,286046972.4,N
1506202115.2,286046969.4,N
1506202135.1,286046969.9,N
1506202136.0,286046969.9,N
1506202155.8,286046970.3,N
1506202175.6,286046970.8,N
1506202195.5,286046970.7,N
1506202215.3,286046967.7,N
1506202235.1,286046968.7,N
1506202255.9,286046967.3,N
1506202275.7,286046966.8,Y
1506202295.5,286046989.2,P
1506202315.4,286046989.8,N
1506202335.2,286046991.3,N
1506202355.0,286046993.2,N
1506202355.9,286046993.2,N
1506202375.8,286046990.5,N
1506202395.6,286046993.1,N
1506202415.4,286046994.0,N
1506202435.2,286046990.6,N
1506202455.1,286046990.8,N
1506202456.0,286046990.8,N
1506202475.8,286046987.9,Y
1506202495.7,286046998.0,P
1506202515.5,286046997.8,N
1506202535.3,286046995.1,N
1506202555.1,286046998.8,N
1506202575.9,286046999.1,N
1506202595.7,286046996.6,N
1506202615.5,286046995.8,N
1506202635.4,286046992.2,N
1506202655.2,286046994.6,N
1506202675.0,286046992.8,N
1506202675.9,286046992.8,N
1506202695.8,286046987.3,Y
1506202715.6,286046990.9,P
1506202735.4,286046991.6,P
1506202755.3,286046991.1,P
1506202775.1,286046988.8,Y
1506202795.8,286046996.6,P
1506202815.7,286046998.5,N
1506202835.5,286047004.3,N
1506202855.3,286047004.0,N
1506202875.2,286047004.6,N
1506202895.9,286047004.7,N
1506202915.7,286047006.0,N
1506202935.6,286047006.1,N
1506202955.4,286047009.2,N
1506202975.2,286047005.1,N
1506202995.0,286047005.3,N
1506202996.0,286047005.3,N
1506203015.8,286047009.2,N
1506203035.6,286047008.2,N
1506203055.4,286047010.2,N
1506203075.3,286047001.8,N
1506203095.1,286047004.3,N
1506203115.8,286047007.6,N
1506203135.7,286047010.1,N
1506203155.5,286047012.7,N
1506203175.3,286047015.3,Y
1506203195.2,286047013.2,P
1506203215.9,286047016.1,P
1506203235.7,286047025.1,P
1506203255.6,286047022.1,Y
1506203275.4,286047013.4,P
1506203295.2,286047013.2,P
1506203315.1,286047013.5,P
1506203316.0,286047013.5,Y
1506203335.8,286046995.2,P
1506203355.6,286046993.8,N
1506203375.5,286047001.1,N
1506203395.3,286046998.3,N
1506203415.1,286046998.2,N
1506203435.9,286047002.5,N
1506203455.7,286047002.6,N
1506203475.5,286047005.6,N
1506203495.4,286047005.1,N
1506203515.2,286047006.0,N
1506203535.0,286047005.9,N
1506203535.9,286047005.9,N
1506203555.8,286047001.4,N
1506203575.6,286047005.7,N
1506203595.4,286047003.7,N
1506203615.2,286047007.4,N
1506203635.1,286047008.3,N
1506203636.0,286047008.3,N
1506203655.8,286047008.5,N
1506203675.6,286047006.4,N
1506203695.5,286047002.0,N
1506203715.3,286047002.8,N
1506203735.1,286047001.6,N
1506203755.9,286047001.4,N
1506203775.7,286047002.9,N
1506203795.5,286047009.0,N
1506203815.4,286047010.8,N
1506203835.2,286047013.9,Y
1506203855.0,286047007.9,P
1506203855.9,286047007.9,P
1506203875.8,286047006.2,P
1506203895.6,286047003.6,N
1506203915.4,286047000.2,N
1506203935.2,286047000.8,N
1506203955.1,286046997.3,N
1506203956.0,286046997.3,N
1506203975.8,286046997.6,N
1506203995.6,286046996.4,N
